NIMBUS 2 DEB, 26670

Orbit data source: Space-Track

NIMBUS 2 DEB, 26670 is space debris in SSO originally from a launch on Sun, 15 May 1966 UTC launched from the Air Force Western Test Range (AFWTR). Debris objects in space refer to the collection of defunct objects orbiting the Earth. Examples of debris include non-operational satellites, rocket bodies, and fragments generated from explosions, collisions, or faulty payload assembly.

Loading next visibility...
Identifier
26670, 1966-040K
Orbit
SSO
Country
Flag of USUS
Related business
Manufacturer
Unknown
Mission
Spacecraft
Bus & Motor
Unknown
Mass
Unknown
Launch date (UTC)
1966-05-15 (59 years ago)
Launch vehicle
Unknown
Launch site
Air Force Western Test Range (AFWTR)
Object type
Payload
Rocket body
Debris
Shape & HBR
Unknown shape, 0.1 m
Radar Cross Section
Small (<0.1 m²)

Expand to show TLE details & history
Last TLE update: 16 hours ago

TLE from 16 hours ago
0 NIMBUS 2 DEB
1 26670U 66040K   25286.91036916  .00008148  00000-0  60265-2 0  9997
2 26670 100.2959  89.4301 0028850 359.4012 158.6847 13.95364764916206
Epoch: 2025-10-13T21:50Z
TLE epoch observation values (Epoch: 2025-10-13T21:50:55.895Z)
Latitude
21.43797°
Longitude
-76.94022°
Altitude
932.035 km
Speed
7.378 km/s
True Right ascension
18h 13m 59s
True Declination
21° 19' 26"
Sunlit
Object was in daylight at epoch
Visualization orbit readout
Latitude
Unknown
Longitude
Unknown
Altitude
Unknown
Speed
Unknown
Apparent Right ascension
Unknown
Apparent Declination
Unknown
Sunlit
N/A
Visualization observer readout
Local Sidereal Time
08:11:23
Azimuth
Unknown
Elevation
Unknown
Doppler factor
Unknown
Orbital elements
Apogee altitude
928.182 km
Perigee altitude
886.146 km
Semi-major axis
7,285.301 km
Eccentricity
0.00289
Inclination
100.2959°
RAAN
89.4301°
Arg. of periapsis
359.4012°
True anomaly
158.80447°
Mean anomaly
158.6847°
Eccentric anomaly
158.74462°
Mean motion
3.49037 °/min
Orbital period
103.14 mins
BSTAR
0.0060265
Loading maneuver chart data...
Computing Atmospheric mass density...
Loading historical data...
Loading historical data...
Loading historical data...
Loading historical data...
Loading historical data...
Loading historical data...
Loading historical data...

Documentation

Showing up to 5 results
|